Flag for Canada Weather past 2 weeks in Richmond Hill, Ontario, Canada

37 °F

Broken clouds.

Feels Like: 35 °F
Forecast: 23 / 39 °F
Wind: 3 mph from North

Location: Toronto Buttonville

Current Time: Nov 29, 2015 at 1:39:18 PM

Latest Report: Nov 29, 2015 at 1:00 PM

Visibility: 15 mi

Pressure: 30.37 "Hg

Humidity: 70%

Dew point: 28 °F

Location of Richmond HillLocation

Historic Weather in Richmond Hill — Graph


Richmond Hill temperature yesterday

Maximum temperature yesterday: 34 °F (at 12:00 AM)
Minimum temperature yesterday: 25 °F (at 11:00 PM)
Average temperature yesterday: 31 °F

Past Weeks' High & Low Weather Summary

High59 °F (Nov 15, 3:00 PM)100% (Nov 25, 6:51 AM)30.61 "Hg (Nov 25, 6:51 AM)
Low19 °F (Nov 23, 7:00 AM)37% (Nov 17, 2:00 PM)29.55 "Hg (Nov 22, 1:00 AM)
Average40 °F75%30.20 "Hg
* Reported Nov 14 12:00 Noon — Nov 29 12:00 Noon, Richmond Hill, Weather by CustomWeather, © 2015

Note: Actual official high and low records may vary slightly from our data, if they occured in-between our weather recording intervals... More about our weather records


Richmond Hill weather history for previous 24 hours

Time TempWeatherWind HumidityBarometerVisibility
12:00 PM
Sun, Nov 29
36 °FPartly sunny.No wind70%30.38 "Hg15 mi
11:00 AM34 °FPartly sunny.No wind75%30.38 "Hg15 mi
10:00 AM30 °FPartly sunny.2 mph80%30.37 "Hg15 mi
9:00 AM27 °FScattered clouds.2 mph86%30.38 "Hg15 mi
8:00 AM23 °FPassing clouds.No wind86%30.38 "Hg15 mi
7:00 AM23 °FPassing clouds.No wind86%30.37 "Hg15 mi
6:00 AM23 °FPassing clouds.3 mph86%30.35 "Hg15 mi
5:00 AM23 °FPassing clouds.No wind86%30.34 "Hg15 mi
4:00 AM23 °FPassing clouds.2 mph93%30.34 "Hg15 mi
3:00 AM23 °FPassing clouds.2 mph93%30.34 "Hg15 mi
2:00 AM25 °FPassing clouds.3 mph86%30.34 "Hg15 mi
1:00 AM25 °FPassing clouds.2 mph86%30.34 "Hg15 mi
12:00 AM25 °FClear.2 mph86%30.35 "Hg15 mi
11:00 PM
Sat, Nov 28
25 °FClear.No wind86%30.34 "Hg15 mi
10:00 PM27 °FClear.2 mph86%30.33 "Hg15 mi
9:00 PM28 °FClear.No wind80%30.34 "Hg15 mi
8:00 PM28 °FPassing clouds.5 mph80%30.35 "Hg15 mi
7:00 PM28 °FClear.7 mph80%30.34 "Hg15 mi
6:00 PM30 °FPassing clouds.3 mph75%30.33 "Hg15 mi
5:00 PM32 °FPassing clouds.5 mph69%30.32 "Hg15 mi
4:00 PM32 °FPassing clouds.3 mph69%30.31 "Hg15 mi
3:00 PM32 °FScattered clouds.7 mph69%30.32 "Hg15 mi
2:00 PM34 °FPartly sunny.7 mph70%30.32 "Hg15 mi
1:00 PM32 °FBroken clouds.9 mph75%30.33 "Hg15 mi
Weather by CustomWeather, © 2015

See weather overviewHow to use our weather pages